Location: Bosmont
(49.7318°N, 3.8587°E)
Time: 13:19:57
(UTC+00:00)

deb S5M - Visible Passes

Search period start: 23 February 2024 00:00
Search period end: 04 March 2024 00:00
Orbit: 815 x 920 km, 82.5° (Epoch: 22 February)

Date Brightness Start Highest point End Pass type
(mag) Time Alt. Az. Time Alt. Az. Time Alt. Az.
28 Feb ? 01:38:12 10° N 01:38:12 10° N 01:38:12 10° N visible
29 Feb ? 01:31:03 10° N 01:31:03 10° N 01:31:05 10° N visible
01 Mar ? 01:23:54 10° N 01:23:54 10° N 01:23:57 10° N visible
02 Mar ? 01:16:43 10° N 01:16:43 10° N 01:16:49 10° N visible
03 Mar ? 01:09:31 11° N 01:09:31 11° N 01:09:39 10° N visible
